Content
SEND FEEDBACK

Daily
Averages
Monthly
Summary
United States of America

GREENFIELD, MASSACHUSETTS


Home > North America > United States > Massachusetts
Elevation: 58 meters     Latitude: 42 37N     Longitude: 072 33W

WEATHER
 
SELECT A DAY
Number of Records: 212,442;   Date Range: 7/1/96 - 7/29/14
 
SHARE

PRINT THIS DATA

[ ← Previous Day ]
WEATHER ALMANAC - APRIL 29, 2014
[ Next Day → ]
[ °C ]   °F
Weather ElementAverageHighLow
Temperature42.8 °F46.9 °F (1:34 am)39 °F (11:00 pm)
Dewpoint34.6 °F39.2 °F (2:48 am)30.9 °F (2:52 pm)
Humidity73.2 %82 % (2:41 am)56 % (1:52 pm)
Barometer30.39 in30.51 in (8:52 pm)30.22 in (1:34 am)
Wind Speed8.4 mph15 mph (1:52 pm)
Wind Gust20.7 mph (1:31 pm)
Weather ElementAverage
Visibility9.8 mi
Wind DirectionE (84.8 °)

Weather ElementTotal
Precipitation---
Heating Degree Days22.1 (Base 65)
Averaged from 25 records on April 29, 2014
WEATHER CONDITIONS BREAKOUT
WIND DIRECTION BREAKOUT
WEATHER BY HOUR - APRIL 29, 2014
[ °C ]   °F
Local TimeTemperatureDewpointHumidityBarometerVisibilityWind DirectionWind SpeedGust SpeedPrecipitationEventsConditions
1:34 AM46.9 °F39.0 °F74 %30.22 in10.0 miENE (60°)9.2 mphOvercast
1:52 AM46.0 °F39.0 °F76 %30.23 in8.0 miENE (70°)9.2 mphOvercast
2:41 AM44.1 °F39.0 °F82 %30.24 in10.0 miEast (90°)8.1 mph17.3 mph0.00 inOvercast
2:48 AM44.6 °F39.2 °F81 %30.25 in10.0 miENE (70°)5.8 mph0.00 inOvercast
2:52 AM44.1 °F39.0 °F82 %30.26 in10.0 miEast (80°)4.6 mph0.00 inOvercast
3:29 AM43.0 °F37.9 °F82 %30.27 in9.0 miEast (80°)11.5 mph18.4 mph0.00 inRainLight Rain
3:52 AM42.1 °F37.0 °F82 %30.29 in10.0 miEast (80°)5.8 mph0.00 inOvercast
4:52 AM42.1 °F36.0 °F79 %30.32 in10.0 miEast (80°)5.8 mphOvercast
5:52 AM41.0 °F35.1 °F79 %30.32 in10.0 miEast (80°)10.4 mph17.3 mphOvercast
7:52 AM41.0 °F35.1 °F79 %30.38 in10.0 miENE (60°)10.4 mph18.4 mphOvercast
9:52 AM42.1 °F33.1 °F70 %30.44 in9.0 miENE (70°)9.2 mph0.00 inRainLight Rain
11:52 AM45.0 °F33.1 °F63 %30.44 in10.0 miESE (110°)9.2 mph19.6 mphOvercast
12:52 PM45.0 °F32.0 °F60 %30.45 in10.0 miENE (70°)9.2 mphOvercast
1:31 PM46.0 °F32.0 °F58 %30.43 in10.0 miEast (90°)10.4 mph20.7 mphOvercast
1:52 PM46.9 °F32.0 °F56 %30.45 in10.0 miEast (100°)15.0 mphOvercast
2:52 PM45.0 °F30.9 °F58 %30.45 in10.0 miEast (90°)13.8 mph20.7 mphOvercast
3:52 PM45.0 °F32.0 °F60 %30.46 in10.0 miEast (80°)13.8 mph18.4 mphOvercast
6:52 PM42.1 °F33.1 °F70 %30.48 in10.0 miEast (90°)6.9 mphOvercast
7:52 PM39.9 °F33.1 °F77 %30.50 in10.0 miEast (90°)11.5 mph0.00 inRainLight Rain
8:14 PM39.9 °F32.0 °F73 %30.48 in10.0 miEast (90°)6.9 mph0.00 inRainLight Rain
8:52 PM39.9 °F33.1 °F77 %30.51 in10.0 miEast (100°)4.6 mph0.00 inRainLight Rain
9:29 PM39.9 °F33.1 °F77 %30.48 in10.0 miEast (100°)3.5 mph0.00 inRainLight Rain
9:52 PM39.9 °F33.1 °F77 %30.50 in10.0 miENE (70°)5.8 mph0.00 inRainLight Rain
11:00 PM39.0 °F33.1 °F79 %30.49 in10.0 miESE (120°)5.8 mph0.00 inRainLight Rain
11:52 PM39.0 °F33.1 °F79 %30.51 in10.0 miEast (100°)4.6 mph0.00 inOvercast
Hourly data recorded from KORE, located miles away from Greenfield, Massachusetts







STORIES FROM OUR PARTNERS